This is the latest recevied weather packets stored in our database for station/object KD9NSC. If no packets are shown the sender has not sent any weather packets the latest 10 day(s).
| Time | Temp. | Humidity | Pressure | Rain* | Wind** | Luminosity | Snow |
|---|---|---|---|---|---|---|---|
| 1777760312 | 10.56° C | 45% | 1019.1 hPa | 0 mm | - | 15 W/m² | - |
| 1777760008 | 10.56° C | 46% | 1019.3 hPa | 0 mm | - | 15 W/m² | - |
| 1777759706 | 10° C | 46% | 1019.2 hPa | 0 mm | - | 15 W/m² | - |
| 1777759401 | 10° C | 49% | 1019.5 hPa | 0 mm | - | 16 W/m² | - |
| 1777759097 | 10° C | 52% | 1019.3 hPa | 0 mm | - | 16 W/m² | - |
| 1777758795 | 10° C | 47% | 1019.3 hPa | 0 mm | - | 17 W/m² | - |
| 1777758492 | 10° C | 49% | 1019.3 hPa | 0 mm | - | 17 W/m² | - |
| 1777758183 | 10° C | 49% | 1019.4 hPa | 0 mm | - | 17 W/m² | - |
| 1777757880 | 10° C | 49% | 1019.5 hPa | 0 mm | - | 17 W/m² | - |
| 1777757577 | 10° C | 48% | 1019.3 hPa | 0 mm | - | 17 W/m² | - |
| 1777757276 | 10° C | 47% | 1019.5 hPa | 0 mm | - | 17 W/m² | - |
| 1777756974 | 10.56° C | 47% | 1019.5 hPa | 0 mm | - | 18 W/m² | - |
| 1777756669 | 10.56° C | 47% | 1019.5 hPa | 0 mm | - | 18 W/m² | - |
| 1777756367 | 10.56° C | 43% | 1019.6 hPa | 0 mm | - | 18 W/m² | - |
| 1777756064 | 10.56° C | 50% | 1019.6 hPa | 0 mm | - | 29 W/m² | - |
| 1777755761 | 11.11° C | 47% | 1019.9 hPa | 0 mm | - | 38 W/m² | - |
| 1777755458 | 10.56° C | 48% | 1019.7 hPa | 0 mm | - | 105 W/m² | - |
| 1777755154 | 11.11° C | 47% | 1019.8 hPa | 0 mm | - | 52 W/m² | - |
| 1777754852 | 10.56° C | 44% | 1019.7 hPa | 0 mm | - | 152 W/m² | - |
| 1777754549 | 10.56° C | 45% | 1019.7 hPa | 0 mm | - | 200 W/m² | - |
| 1777754247 | 10.56° C | 45% | 1019.9 hPa | 0 mm | - | 101 W/m² | - |
| 1777753945 | 10.56° C | 47% | 1019.8 hPa | 0 mm | - | 20 W/m² | - |
| 1777753638 | 10.56° C | 46% | 1019.9 hPa | 0 mm | - | 20 W/m² | - |
| 1777753337 | 10° C | 49% | 1020.1 hPa | 0 mm | - | 69 W/m² | - |
| 1777753034 | 10.56° C | 45% | 1020.2 hPa | 0 mm | - | 73 W/m² | - |
* Rain latest hour (hover to see other rain measurements)
** Current wind speed in m/s (hover to see current wind gust speed)